GEFSSE_prec_meanprecacc_186.txt.gz
Total_Precipitation_Accumulation
0.12 0.13 0.29 0.23 0.18 0.21 0.22 0.23 0.22 0.20 0.17 0.17 0.17 0.15 0.12 0.11 0.11 0.11 0.12 0.15 0.18 0.24 0.28 0.33 0.39 0.38 0.43 0.44 0.41 0.42 0.41 0.42 0.47 0.50 0.54 0.57 0.67 0.83 1.00 1.00 1.05 0.66 0.62
0.04 0.08 0.25 0.19 0.16 0.17 0.18 0.19 0.20 0.19 0.17 0.15 0.14 0.12 0.12 0.12 0.12 0.12 0.15 0.18 0.21 0.24 0.27 0.32 0.33 0.32 0.32 0.32 0.31 0.33 0.37 0.46 0.55 0.61 0.66 0.60 0.72 0.88 0.96 0.93 1.06 0.63 0.53
0.05 0.05 0.13 0.17 0.14 0.15 0.17 0.18 0.19 0.18 0.18 0.17 0.15 0.13 0.13 0.14 0.14 0.14 0.16 0.21 0.22 0.25 0.26 0.28 0.27 0.24 0.22 0.23 0.25 0.31 0.42 0.56 0.77 0.94 1.11 0.72 0.50 0.80 0.87 0.81 0.68 0.46 0.47
0.05 0.04 0.06 0.12 0.13 0.12 0.14 0.15 0.18 0.18 0.18 0.19 0.17 0.15 0.15 0.17 0.20 0.22 0.22 0.23 0.25 0.27 0.24 0.24 0.23 0.19 0.18 0.19 0.24 0.34 0.45 0.57 0.93 1.29 1.42 0.67 0.32 0.47 0.57 0.51 0.46 0.43 0.42
0.06 0.05 0.06 0.09 0.10 0.10 0.11 0.14 0.16 0.17 0.18 0.20 0.18 0.16 0.18 0.21 0.26 0.27 0.28 0.27 0.28 0.26 0.24 0.25 0.22 0.20 0.18 0.19 0.25 0.36 0.43 0.59 0.93 1.16 0.97 0.76 0.65 0.46 0.41 0.42 0.47 0.46 0.44
0.09 0.07 0.08 0.11 0.10 0.09 0.11 0.12 0.14 0.18 0.20 0.20 0.17 0.18 0.19 0.25 0.27 0.27 0.26 0.27 0.27 0.24 0.24 0.23 0.21 0.20 0.21 0.22 0.29 0.37 0.52 0.72 0.87 0.65 0.56 0.68 0.63 0.47 0.42 0.49 0.51 0.45 0.42
0.10 0.12 0.12 0.14 0.12 0.12 0.12 0.13 0.15 0.16 0.18 0.19 0.18 0.19 0.21 0.26 0.26 0.25 0.24 0.26 0.24 0.22 0.23 0.24 0.23 0.21 0.24 0.26 0.33 0.40 0.57 0.78 0.80 0.52 0.54 0.77 0.63 0.39 0.45 0.56 0.68 0.57 0.43
0.16 0.18 0.20 0.22 0.20 0.18 0.16 0.15 0.16 0.19 0.20 0.21 0.23 0.22 0.22 0.25 0.27 0.26 0.26 0.27 0.25 0.23 0.23 0.24 0.25 0.24 0.27 0.31 0.38 0.43 0.50 0.57 0.56 0.50 0.51 0.64 0.45 0.35 0.43 0.60 0.76 0.73 0.66
0.39 0.48 0.40 0.28 0.24 0.25 0.24 0.23 0.22 0.24 0.26 0.26 0.27 0.25 0.26 0.27 0.28 0.29 0.30 0.31 0.30 0.28 0.28 0.26 0.24 0.28 0.31 0.34 0.39 0.44 0.49 0.55 0.63 0.65 0.55 0.58 0.38 0.39 0.48 0.57 0.70 0.79 0.79
0.58 0.59 0.53 0.40 0.35 0.27 0.24 0.26 0.28 0.30 0.31 0.29 0.28 0.29 0.29 0.29 0.31 0.35 0.35 0.41 0.42 0.43 0.46 0.44 0.37 0.36 0.40 0.44 0.43 0.49 0.54 0.55 0.59 0.65 0.80 0.62 0.47 0.52 0.60 0.62 0.69 0.81 0.87
1.04 0.91 0.76 0.50 0.41 0.38 0.32 0.29 0.37 0.38 0.37 0.38 0.41 0.40 0.50 0.65 0.64 0.75 0.66 0.75 0.71 0.74 0.74 0.75 0.70 0.67 0.70 0.59 0.62 0.72 0.70 0.64 0.81 0.90 0.82 0.59 0.61 0.80 0.91 0.78 0.75 0.80 0.85
1.55 1.36 1.10 0.80 0.63 0.56 0.47 0.49 0.57 0.56 0.67 0.71 0.87 0.91 1.16 1.39 1.33 0.98 1.05 1.26 1.31 1.31 1.25 1.27 1.39 1.25 1.10 0.97 1.25 1.48 0.95 0.81 0.95 0.90 0.83 0.90 1.07 1.32 1.45 1.20 1.00 0.89 0.86
1.71 1.53 1.40 1.18 0.96 0.76 0.78 0.77 0.84 0.97 1.27 1.18 1.11 1.24 1.60 1.50 1.24 1.10 1.22 1.51 1.78 1.77 1.72 1.80 1.96 1.62 1.71 1.92 2.03 2.05 1.42 1.17 1.27 1.20 1.01 1.19 1.43 1.74 1.95 1.74 1.39 1.19 1.05
2.27 2.03 1.80 1.64 1.43 1.36 1.25 1.14 1.04 1.08 1.21 1.22 1.34 1.27 1.59 1.72 1.60 1.54 1.68 1.77 1.97 2.18 2.54 2.42 2.55 2.43 2.35 2.20 2.24 2.24 1.94 1.83 1.73 1.80 1.79 1.72 1.77 1.97 2.24 2.22 1.93 1.62 1.38
2.71 2.49 2.34 2.19 2.10 2.06 1.88 1.67 1.34 1.38 1.34 1.37 1.57 1.56 1.66 1.91 2.00 2.10 2.07 2.03 1.91 2.24 2.65 2.88 2.59 2.87 2.89 2.50 2.18 2.06 2.03 2.00 2.19 2.39 2.25 2.42 2.32 2.27 2.48 2.53 2.33 2.09 1.92
2.86 2.98 3.06 2.92 2.80 2.78 2.56 2.36 2.08 1.87 1.93 1.88 1.89 2.01 2.15 2.33 2.47 2.53 2.40 2.33 2.12 2.13 2.42 2.63 2.63 2.86 2.75 2.60 2.03 1.93 1.89 2.03 2.22 2.26 2.27 2.73 2.67 2.43 2.42 2.56 2.56 2.41 2.25
3.02 3.46 3.72 3.76 3.65 3.61 3.48 3.14 2.75 2.56 2.56 2.68 2.72 2.73 2.65 2.73 2.94 2.82 2.61 2.31 2.21 2.26 2.40 2.38 2.40 2.50 2.36 2.28 2.04 2.11 2.08 2.00 1.89 1.94 2.10 2.31 2.24 2.08 2.07 2.17 2.38 2.53 2.68
3.31 3.87 4.18 4.32 4.53 4.40 4.32 3.95 3.47 3.21 3.07 3.02 3.07 3.06 2.93 2.96 2.85 2.78 2.47 2.13 2.19 2.31 2.31 2.29 2.14 2.23 2.25 2.31 2.31 2.15 2.23 2.11 1.72 1.69 1.76 1.73 1.82 1.67 1.83 1.93 2.04 2.24 2.68
3.62 4.29 4.68 5.14 5.41 5.28 4.98 4.46 4.00 3.85 3.61 3.39 3.34 3.24 3.05 2.83 2.67 2.72 2.41 2.29 2.21 2.25 2.15 1.98 2.20 2.31 2.32 2.35 2.18 2.08 1.88 1.68 1.45 1.30 1.27 1.16 1.33 1.52 1.70 1.74 1.80 1.88 2.37
3.71 4.47 5.07 5.59 5.75 5.46 4.92 4.49 4.31 4.14 3.79 3.51 3.19 2.91 2.64 2.49 2.31 2.43 2.23 2.16 2.26 2.30 2.13 2.13 2.31 2.31 2.09 2.18 2.00 1.83 1.63 1.35 1.23 1.11 0.95 0.95 0.93 0.90 1.14 1.50 1.79 1.52 1.86
3.94 4.65 5.23 5.58 5.51 5.28 4.92 4.53 4.22 3.74 3.42 3.13 2.81 2.57 2.34 2.08 1.98 2.20 2.05 2.25 2.18 2.05 1.89 1.86 1.95 1.95 1.72 1.98 2.18 1.76 1.33 1.11 1.00 0.86 0.85 0.91 0.85 0.91 1.14 1.47 1.66 1.76 1.64
3.71 4.20 4.60 4.54 4.21 4.07 4.01 3.89 3.62 3.64 3.50 3.32 3.09 2.84 2.45 2.24 2.05 1.90 2.00 1.88 1.84 1.90 1.70 1.59 1.75 1.75 1.53 1.81 1.93 1.89 1.40 1.19 0.99 0.69 0.74 0.75 0.84 1.03 1.06 1.16 1.46 1.64 1.57
3.12 3.42 3.47 3.35 3.13 3.13 3.17 3.09 3.14 3.39 3.44 3.38 3.21 2.95 2.66 2.49 2.33 2.16 1.99 1.80 1.75 1.63 1.61 1.57 1.63 1.65 1.56 1.53 1.59 1.74 1.43 1.14 0.97 0.68 0.59 0.67 0.90 1.14 1.12 1.22 1.26 1.41 1.44
2.34 2.49 2.53 2.58 2.57 2.54 2.56 2.49 2.40 2.47 2.62 2.83 3.06 3.10 3.08 2.86 2.59 2.30 2.10 1.86 1.63 1.48 1.59 1.34 1.42 1.62 1.68 1.44 1.40 1.38 1.31 1.41 1.39 1.06 0.73 0.64 0.87 1.02 1.08 1.03 1.13 1.36 1.50
1.63 1.77 1.86 2.13 2.40 2.46 2.45 2.52 2.42 2.19 2.16 2.20 2.33 2.47 2.49 2.50 2.37 2.10 1.97 1.86 1.61 1.41 1.39 1.37 1.54 1.52 1.50 1.40 1.42 1.41 1.48 1.59 1.45 1.34 1.08 0.95 0.96 0.88 0.90 0.95 1.11 1.29 1.46
1.27 1.43 1.65 1.94 2.30 2.49 2.53 2.49 2.41 2.33 2.28 2.16 2.11 2.12 2.01 2.03 2.01 1.90 1.78 1.75 1.58 1.42 1.40 1.36 1.44 1.49 1.53 1.57 1.55 1.51 1.57 1.53 1.51 1.65 1.45 1.24 1.15 0.96 0.95 1.05 1.22 1.37 1.47

GEFSSE_prec_meanprecacc_192.txt.gz
Total_Precipitation_Accumulation
0.17 0.18 0.34 0.27 0.21 0.23 0.24 0.25 0.25 0.22 0.19 0.20 0.20 0.18 0.15 0.15 0.16 0.17 0.17 0.20 0.24 0.30 0.35 0.39 0.44 0.43 0.50 0.51 0.48 0.48 0.46 0.47 0.51 0.54 0.60 0.62 0.71 0.86 1.05 1.05 1.08 0.68 0.66
0.06 0.11 0.29 0.22 0.17 0.18 0.19 0.20 0.21 0.21 0.19 0.17 0.16 0.15 0.14 0.15 0.16 0.16 0.19 0.22 0.25 0.29 0.31 0.36 0.38 0.37 0.37 0.36 0.36 0.38 0.43 0.52 0.62 0.69 0.74 0.65 0.77 0.93 1.00 0.96 1.09 0.67 0.58
0.06 0.07 0.16 0.19 0.15 0.16 0.17 0.19 0.20 0.19 0.19 0.18 0.17 0.15 0.16 0.18 0.17 0.17 0.20 0.24 0.26 0.28 0.30 0.32 0.30 0.28 0.26 0.26 0.28 0.35 0.46 0.61 0.83 1.01 1.16 0.76 0.55 0.86 0.92 0.86 0.72 0.49 0.50
0.06 0.05 0.07 0.14 0.13 0.12 0.15 0.16 0.19 0.19 0.19 0.20 0.18 0.17 0.18 0.20 0.23 0.25 0.25 0.26 0.29 0.31 0.27 0.26 0.25 0.22 0.21 0.22 0.28 0.38 0.49 0.61 0.97 1.32 1.43 0.68 0.33 0.51 0.61 0.54 0.48 0.45 0.44
0.07 0.06 0.08 0.11 0.11 0.11 0.12 0.15 0.16 0.17 0.18 0.20 0.19 0.17 0.19 0.23 0.28 0.29 0.29 0.29 0.31 0.29 0.27 0.27 0.24 0.22 0.20 0.22 0.29 0.39 0.47 0.63 0.95 1.17 0.97 0.76 0.66 0.50 0.45 0.44 0.48 0.47 0.46
0.09 0.08 0.10 0.12 0.11 0.10 0.11 0.13 0.14 0.18 0.20 0.20 0.17 0.19 0.20 0.26 0.28 0.28 0.27 0.28 0.28 0.26 0.26 0.25 0.23 0.22 0.23 0.25 0.31 0.39 0.54 0.75 0.89 0.66 0.57 0.68 0.64 0.50 0.45 0.52 0.53 0.47 0.44
0.11 0.12 0.13 0.15 0.13 0.12 0.13 0.14 0.15 0.17 0.19 0.20 0.18 0.19 0.22 0.27 0.28 0.26 0.26 0.27 0.26 0.23 0.25 0.26 0.25 0.22 0.25 0.29 0.35 0.43 0.60 0.82 0.81 0.53 0.55 0.77 0.64 0.42 0.47 0.58 0.71 0.60 0.45
0.16 0.19 0.22 0.23 0.21 0.18 0.16 0.15 0.17 0.19 0.20 0.22 0.23 0.22 0.23 0.26 0.28 0.27 0.27 0.29 0.26 0.24 0.24 0.25 0.26 0.26 0.29 0.34 0.41 0.46 0.54 0.60 0.57 0.51 0.52 0.64 0.46 0.37 0.44 0.61 0.78 0.75 0.67
0.39 0.48 0.41 0.29 0.25 0.26 0.25 0.23 0.22 0.24 0.27 0.27 0.27 0.25 0.27 0.28 0.29 0.30 0.32 0.32 0.30 0.29 0.29 0.27 0.26 0.30 0.33 0.37 0.42 0.47 0.52 0.59 0.65 0.67 0.56 0.59 0.39 0.40 0.49 0.58 0.71 0.80 0.80
0.59 0.60 0.56 0.42 0.37 0.29 0.25 0.26 0.28 0.30 0.32 0.30 0.29 0.29 0.30 0.29 0.31 0.35 0.36 0.43 0.43 0.44 0.47 0.45 0.39 0.37 0.43 0.47 0.47 0.53 0.59 0.58 0.60 0.66 0.81 0.64 0.48 0.53 0.61 0.63 0.69 0.81 0.88
1.04 0.92 0.77 0.51 0.41 0.39 0.33 0.30 0.39 0.39 0.38 0.38 0.42 0.40 0.51 0.65 0.64 0.76 0.67 0.76 0.73 0.75 0.76 0.76 0.72 0.69 0.72 0.63 0.66 0.77 0.74 0.66 0.82 0.91 0.83 0.60 0.63 0.82 0.93 0.79 0.76 0.80 0.86
1.56 1.36 1.11 0.81 0.63 0.56 0.47 0.50 0.59 0.59 0.68 0.72 0.88 0.93 1.17 1.39 1.33 0.98 1.05 1.27 1.32 1.32 1.26 1.28 1.41 1.27 1.11 0.98 1.27 1.51 0.96 0.82 0.96 0.91 0.83 0.92 1.09 1.34 1.47 1.23 1.01 0.90 0.87
1.71 1.54 1.40 1.18 0.96 0.76 0.78 0.79 0.86 0.99 1.29 1.19 1.12 1.24 1.61 1.51 1.24 1.10 1.23 1.52 1.79 1.78 1.72 1.81 1.97 1.63 1.71 1.93 2.04 2.07 1.44 1.19 1.30 1.21 1.02 1.21 1.45 1.76 1.96 1.76 1.41 1.20 1.06
2.28 2.03 1.81 1.65 1.43 1.36 1.25 1.14 1.04 1.09 1.22 1.23 1.35 1.28 1.61 1.74 1.62 1.55 1.69 1.78 1.98 2.19 2.55 2.43 2.56 2.44 2.36 2.21 2.25 2.25 1.97 1.85 1.77 1.83 1.82 1.73 1.80 2.00 2.26 2.23 1.95 1.64 1.40
2.71 2.50 2.35 2.20 2.11 2.06 1.89 1.69 1.35 1.38 1.35 1.39 1.59 1.58 1.69 1.95 2.04 2.13 2.11 2.04 1.93 2.26 2.68 2.89 2.60 2.89 2.91 2.51 2.19 2.08 2.04 2.02 2.21 2.42 2.29 2.45 2.35 2.30 2.51 2.55 2.35 2.12 1.96
2.89 2.99 3.08 2.94 2.82 2.80 2.57 2.37 2.10 1.88 1.96 1.92 1.93 2.04 2.18 2.37 2.52 2.57 2.44 2.36 2.14 2.15 2.45 2.67 2.66 2.89 2.77 2.63 2.05 1.94 1.90 2.05 2.23 2.28 2.30 2.75 2.72 2.47 2.46 2.59 2.60 2.44 2.28
3.06 3.50 3.75 3.78 3.69 3.64 3.51 3.16 2.77 2.58 2.59 2.72 2.76 2.78 2.70 2.79 3.00 2.87 2.67 2.34 2.23 2.29 2.43 2.41 2.43 2.52 2.39 2.30 2.07 2.14 2.10 2.01 1.91 1.95 2.12 2.33 2.27 2.13 2.13 2.22 2.45 2.60 2.73
3.36 3.91 4.20 4.35 4.56 4.44 4.36 4.00 3.51 3.23 3.12 3.07 3.11 3.11 3.00 3.04 2.92 2.84 2.53 2.17 2.21 2.34 2.34 2.32 2.18 2.26 2.29 2.35 2.34 2.18 2.27 2.14 1.74 1.71 1.77 1.75 1.85 1.69 1.88 2.00 2.12 2.32 2.77
3.68 4.33 4.70 5.16 5.44 5.33 5.03 4.52 4.04 3.88 3.65 3.45 3.39 3.29 3.12 2.90 2.73 2.79 2.46 2.33 2.26 2.29 2.19 2.02 2.23 2.36 2.37 2.41 2.24 2.12 1.92 1.72 1.48 1.32 1.28 1.18 1.35 1.54 1.73 1.79 1.89 1.98 2.45
3.74 4.49 5.10 5.62 5.78 5.52 4.97 4.52 4.34 4.17 3.83 3.57 3.25 2.97 2.70 2.55 2.39 2.51 2.29 2.23 2.33 2.36 2.17 2.18 2.37 2.36 2.14 2.23 2.05 1.88 1.67 1.38 1.25 1.13 0.97 0.97 0.94 0.93 1.18 1.54 1.83 1.57 1.95
3.96 4.67 5.25 5.61 5.55 5.34 4.96 4.56 4.25 3.77 3.46 3.19 2.88 2.63 2.40 2.15 2.05 2.29 2.12 2.33 2.26 2.11 1.94 1.92 2.01 1.99 1.76 2.03 2.22 1.79 1.36 1.13 1.01 0.87 0.87 0.93 0.87 0.94 1.18 1.52 1.73 1.85 1.71
3.73 4.24 4.64 4.59 4.30 4.15 4.06 3.93 3.66 3.68 3.56 3.39 3.16 2.90 2.51 2.33 2.15 2.00 2.10 1.98 1.94 1.98 1.77 1.66 1.81 1.79 1.56 1.85 1.96 1.92 1.42 1.20 1.00 0.70 0.76 0.79 0.86 1.06 1.10 1.23 1.55 1.74 1.67
3.18 3.50 3.54 3.43 3.24 3.25 3.24 3.15 3.21 3.46 3.51 3.43 3.27 3.00 2.72 2.57 2.42 2.26 2.09 1.91 1.84 1.71 1.69 1.64 1.69 1.72 1.63 1.59 1.65 1.79 1.45 1.15 0.98 0.69 0.61 0.68 0.92 1.17 1.17 1.28 1.33 1.49 1.53
2.42 2.58 2.59 2.66 2.66 2.64 2.65 2.60 2.51 2.55 2.67 2.88 3.12 3.16 3.12 2.92 2.66 2.39 2.18 1.95 1.73 1.58 1.68 1.41 1.49 1.69 1.75 1.50 1.48 1.44 1.36 1.44 1.41 1.07 0.75 0.66 0.89 1.05 1.12 1.07 1.17 1.40 1.56
1.74 1.86 1.92 2.20 2.48 2.56 2.58 2.66 2.54 2.25 2.20 2.25 2.39 2.54 2.56 2.57 2.45 2.16 2.04 1.96 1.75 1.56 1.51 1.46 1.60 1.58 1.56 1.47 1.49 1.48 1.57 1.66 1.50 1.37 1.09 0.96 0.98 0.91 0.93 0.99 1.16 1.33 1.51
1.36 1.52 1.72 2.01 2.36 2.57 2.62 2.57 2.47 2.38 2.33 2.21 2.17 2.20 2.11 2.10 2.07 1.97 1.88 1.85 1.71 1.56 1.52 1.47 1.54 1.59 1.62 1.65 1.62 1.58 1.64 1.60 1.60 1.74 1.52 1.31 1.22 1.04 1.02 1.12 1.28 1.43 1.53

GEFSSE_prec_meanprecacc_198.txt.gz
Total_Precipitation_Accumulation
0.22 0.25 0.40 0.33 0.26 0.27 0.27 0.28 0.28 0.27 0.25 0.27 0.28 0.25 0.22 0.22 0.24 0.25 0.25 0.30 0.37 0.42 0.45 0.47 0.51 0.52 0.58 0.60 0.55 0.52 0.49 0.51 0.56 0.61 0.65 0.67 0.75 0.89 1.08 1.07 1.10 0.71 0.69
0.10 0.16 0.35 0.26 0.21 0.21 0.22 0.23 0.25 0.24 0.24 0.23 0.22 0.20 0.20 0.22 0.22 0.23 0.27 0.34 0.34 0.36 0.38 0.42 0.44 0.44 0.43 0.42 0.40 0.41 0.46 0.56 0.66 0.75 0.80 0.70 0.81 0.96 1.03 0.98 1.12 0.69 0.62
0.09 0.10 0.19 0.22 0.17 0.18 0.20 0.22 0.24 0.22 0.22 0.21 0.21 0.20 0.22 0.23 0.22 0.22 0.25 0.30 0.32 0.34 0.35 0.37 0.35 0.31 0.29 0.29 0.31 0.38 0.50 0.64 0.86 1.05 1.21 0.80 0.58 0.90 0.97 0.89 0.75 0.52 0.54
0.07 0.08 0.10 0.16 0.15 0.14 0.17 0.19 0.22 0.22 0.22 0.23 0.22 0.21 0.22 0.24 0.27 0.29 0.29 0.30 0.33 0.35 0.31 0.31 0.30 0.26 0.24 0.25 0.31 0.41 0.52 0.64 0.99 1.35 1.47 0.72 0.36 0.54 0.65 0.56 0.49 0.47 0.47
0.08 0.08 0.11 0.13 0.13 0.13 0.14 0.17 0.19 0.20 0.21 0.22 0.21 0.21 0.22 0.25 0.31 0.32 0.33 0.32 0.35 0.33 0.30 0.32 0.29 0.26 0.24 0.25 0.32 0.42 0.49 0.65 0.97 1.19 0.99 0.79 0.69 0.54 0.48 0.45 0.49 0.49 0.47
0.10 0.10 0.12 0.14 0.13 0.12 0.13 0.15 0.17 0.20 0.22 0.23 0.20 0.22 0.24 0.30 0.32 0.31 0.31 0.33 0.33 0.30 0.29 0.28 0.26 0.25 0.25 0.27 0.34 0.42 0.56 0.77 0.90 0.66 0.58 0.70 0.67 0.54 0.48 0.55 0.55 0.50 0.46
0.11 0.13 0.15 0.17 0.15 0.14 0.15 0.16 0.18 0.19 0.20 0.22 0.20 0.22 0.24 0.30 0.31 0.30 0.29 0.30 0.29 0.26 0.27 0.28 0.28 0.25 0.28 0.31 0.38 0.45 0.62 0.84 0.82 0.54 0.57 0.80 0.66 0.45 0.50 0.62 0.74 0.64 0.46
0.17 0.20 0.23 0.24 0.22 0.19 0.17 0.17 0.19 0.21 0.22 0.24 0.25 0.24 0.25 0.28 0.30 0.30 0.30 0.32 0.29 0.27 0.26 0.28 0.29 0.29 0.31 0.36 0.44 0.51 0.56 0.62 0.59 0.53 0.55 0.67 0.48 0.39 0.46 0.62 0.80 0.78 0.69
0.40 0.49 0.42 0.30 0.26 0.27 0.26 0.25 0.23 0.26 0.28 0.28 0.29 0.27 0.29 0.29 0.31 0.32 0.34 0.35 0.34 0.32 0.31 0.29 0.28 0.31 0.34 0.39 0.45 0.49 0.53 0.61 0.67 0.70 0.58 0.63 0.42 0.42 0.50 0.59 0.73 0.83 0.83
0.59 0.61 0.56 0.43 0.38 0.30 0.26 0.27 0.29 0.32 0.35 0.32 0.30 0.30 0.31 0.30 0.33 0.37 0.38 0.45 0.46 0.48 0.50 0.47 0.41 0.39 0.44 0.49 0.50 0.55 0.61 0.60 0.63 0.69 0.83 0.66 0.50 0.56 0.64 0.64 0.71 0.83 0.90
1.04 0.92 0.78 0.52 0.42 0.40 0.34 0.32 0.41 0.43 0.41 0.42 0.44 0.42 0.53 0.68 0.66 0.77 0.68 0.78 0.75 0.78 0.78 0.79 0.74 0.72 0.74 0.65 0.69 0.81 0.78 0.69 0.85 0.94 0.85 0.61 0.64 0.85 0.97 0.82 0.78 0.81 0.87
1.56 1.36 1.11 0.82 0.64 0.57 0.48 0.52 0.62 0.62 0.73 0.75 0.91 0.95 1.19 1.42 1.35 0.99 1.06 1.29 1.34 1.35 1.29 1.31 1.44 1.29 1.13 1.00 1.29 1.54 0.99 0.85 0.98 0.94 0.85 0.93 1.12 1.38 1.51 1.25 1.04 0.91 0.88
1.71 1.54 1.41 1.19 0.97 0.78 0.80 0.81 0.89 1.03 1.32 1.21 1.14 1.25 1.63 1.52 1.25 1.12 1.25 1.54 1.82 1.81 1.76 1.84 2.00 1.65 1.73 1.95 2.07 2.09 1.46 1.20 1.32 1.23 1.03 1.22 1.48 1.79 1.99 1.78 1.44 1.22 1.08
2.28 2.03 1.81 1.65 1.44 1.37 1.27 1.16 1.06 1.11 1.24 1.25 1.38 1.29 1.62 1.76 1.63 1.58 1.73 1.82 2.02 2.24 2.61 2.48 2.62 2.48 2.39 2.23 2.27 2.28 2.00 1.87 1.78 1.85 1.84 1.75 1.83 2.03 2.30 2.27 1.98 1.67 1.44
2.72 2.50 2.35 2.21 2.12 2.08 1.91 1.71 1.36 1.40 1.37 1.40 1.60 1.59 1.71 1.98 2.07 2.15 2.14 2.08 1.97 2.30 2.71 2.93 2.65 2.93 2.95 2.55 2.21 2.09 2.07 2.04 2.23 2.44 2.32 2.47 2.38 2.33 2.55 2.59 2.39 2.17 2.02
2.89 3.00 3.09 2.96 2.84 2.82 2.60 2.40 2.12 1.91 1.99 1.94 1.95 2.07 2.22 2.42 2.58 2.63 2.49 2.41 2.20 2.21 2.50 2.71 2.70 2.93 2.82 2.67 2.07 1.95 1.91 2.06 2.24 2.30 2.33 2.79 2.75 2.49 2.48 2.62 2.64 2.49 2.33
3.06 3.50 3.75 3.79 3.70 3.66 3.53 3.18 2.80 2.62 2.63 2.76 2.83 2.83 2.76 2.85 3.09 2.97 2.75 2.42 2.30 2.35 2.50 2.47 2.49 2.56 2.42 2.34 2.10 2.17 2.12 2.03 1.92 1.99 2.15 2.37 2.31 2.16 2.16 2.27 2.52 2.67 2.79
3.37 3.91 4.20 4.36 4.58 4.46 4.39 4.04 3.54 3.28 3.17 3.12 3.18 3.17 3.06 3.12 3.01 2.94 2.63 2.25 2.32 2.42 2.41 2.41 2.27 2.33 2.35 2.40 2.40 2.23 2.30 2.17 1.77 1.75 1.80 1.77 1.88 1.73 1.92 2.07 2.19 2.40 2.84
3.68 4.34 4.72 5.19 5.48 5.37 5.07 4.56 4.08 3.94 3.72 3.51 3.46 3.36 3.19 2.98 2.84 2.90 2.57 2.44 2.41 2.42 2.28 2.09 2.34 2.47 2.46 2.48 2.29 2.18 1.96 1.76 1.53 1.35 1.30 1.19 1.39 1.58 1.78 1.84 1.94 2.04 2.52
3.75 4.50 5.11 5.64 5.84 5.59 5.03 4.58 4.40 4.22 3.90 3.64 3.32 3.06 2.78 2.64 2.48 2.63 2.40 2.33 2.45 2.49 2.30 2.31 2.52 2.52 2.26 2.33 2.10 1.92 1.72 1.43 1.29 1.15 0.99 0.98 0.97 0.95 1.21 1.59 1.90 1.63 2.00
3.97 4.68 5.29 5.68 5.65 5.43 5.04 4.63 4.32 3.85 3.54 3.26 2.96 2.73 2.49 2.24 2.14 2.40 2.22 2.44 2.37 2.24 2.07 2.06 2.15 2.15 1.89 2.13 2.31 1.87 1.41 1.17 1.04 0.89 0.89 0.96 0.90 0.96 1.21 1.59 1.82 1.94 1.80
3.75 4.27 4.73 4.71 4.38 4.22 4.14 4.03 3.75 3.78 3.64 3.48 3.23 2.98 2.58 2.41 2.25 2.09 2.20 2.07 2.03 2.09 1.90 1.80 1.94 1.94 1.69 1.97 2.09 2.03 1.50 1.27 1.03 0.71 0.77 0.81 0.89 1.09 1.15 1.29 1.62 1.84 1.77
3.20 3.54 3.61 3.49 3.30 3.32 3.32 3.26 3.30 3.54 3.58 3.50 3.34 3.08 2.79 2.64 2.50 2.33 2.16 1.99 1.93 1.79 1.80 1.79 1.84 1.84 1.75 1.74 1.81 1.96 1.55 1.23 1.03 0.71 0.62 0.70 0.96 1.23 1.23 1.33 1.37 1.54 1.60
2.44 2.60 2.61 2.68 2.69 2.68 2.70 2.66 2.57 2.61 2.75 2.96 3.20 3.24 3.19 2.98 2.73 2.45 2.24 2.03 1.83 1.67 1.79 1.54 1.61 1.82 1.88 1.63 1.61 1.59 1.49 1.56 1.49 1.12 0.79 0.70 0.93 1.11 1.18 1.11 1.20 1.44 1.61
1.75 1.88 1.94 2.21 2.51 2.60 2.63 2.72 2.60 2.32 2.27 2.32 2.46 2.61 2.63 2.62 2.50 2.20 2.09 2.03 1.84 1.65 1.61 1.57 1.73 1.73 1.69 1.60 1.62 1.58 1.67 1.77 1.61 1.48 1.18 1.05 1.08 1.00 1.01 1.05 1.20 1.37 1.56
1.37 1.53 1.73 2.02 2.40 2.61 2.65 2.61 2.54 2.44 2.38 2.27 2.23 2.27 2.16 2.15 2.12 2.01 1.93 1.93 1.79 1.65 1.61 1.57 1.66 1.72 1.75 1.77 1.72 1.66 1.71 1.69 1.69 1.85 1.62 1.42 1.35 1.15 1.10 1.18 1.34 1.48 1.58

GEFSSE_prec_meanprecacc_204.txt.gz
Total_Precipitation_Accumulation
0.26 0.29 0.45 0.38 0.32 0.33 0.34 0.34 0.35 0.35 0.33 0.33 0.34 0.32 0.30 0.30 0.33 0.35 0.37 0.41 0.46 0.49 0.54 0.61 0.67 0.67 0.71 0.67 0.60 0.55 0.52 0.54 0.60 0.65 0.69 0.70 0.78 0.93 1.13 1.15 1.19 0.76 0.75
0.12 0.18 0.38 0.30 0.25 0.26 0.27 0.29 0.31 0.31 0.31 0.30 0.29 0.29 0.32 0.35 0.36 0.35 0.41 0.43 0.42 0.45 0.50 0.55 0.54 0.55 0.51 0.47 0.45 0.45 0.50 0.60 0.68 0.79 0.83 0.72 0.84 1.00 1.09 1.07 1.20 0.74 0.66
0.10 0.11 0.20 0.25 0.21 0.24 0.26 0.27 0.29 0.28 0.28 0.28 0.28 0.29 0.33 0.35 0.33 0.33 0.35 0.37 0.40 0.43 0.44 0.44 0.41 0.36 0.33 0.33 0.35 0.43 0.54 0.67 0.90 1.09 1.28 0.84 0.59 0.93 1.01 0.95 0.78 0.55 0.56
0.08 0.09 0.10 0.18 0.19 0.18 0.22 0.25 0.27 0.26 0.26 0.28 0.29 0.29 0.31 0.33 0.35 0.35 0.36 0.36 0.40 0.41 0.36 0.36 0.34 0.29 0.27 0.27 0.33 0.44 0.55 0.67 1.04 1.42 1.58 0.78 0.38 0.56 0.69 0.59 0.52 0.49 0.47
0.08 0.09 0.11 0.15 0.15 0.15 0.17 0.21 0.24 0.23 0.24 0.26 0.26 0.27 0.30 0.32 0.36 0.37 0.38 0.38 0.38 0.36 0.33 0.36 0.33 0.29 0.26 0.27 0.33 0.44 0.52 0.69 1.02 1.25 1.06 0.86 0.74 0.57 0.51 0.48 0.51 0.50 0.48
0.10 0.10 0.12 0.15 0.14 0.14 0.16 0.18 0.21 0.24 0.26 0.26 0.24 0.26 0.28 0.34 0.36 0.34 0.35 0.36 0.35 0.32 0.32 0.31 0.28 0.28 0.27 0.29 0.36 0.44 0.58 0.81 0.96 0.70 0.62 0.75 0.70 0.56 0.50 0.56 0.56 0.51 0.48
0.11 0.13 0.15 0.17 0.15 0.15 0.17 0.18 0.20 0.21 0.24 0.25 0.23 0.25 0.28 0.33 0.33 0.32 0.32 0.33 0.31 0.27 0.28 0.31 0.31 0.27 0.30 0.33 0.40 0.48 0.65 0.88 0.87 0.57 0.62 0.85 0.70 0.46 0.51 0.63 0.75 0.65 0.47
0.17 0.20 0.23 0.25 0.22 0.20 0.19 0.19 0.20 0.22 0.23 0.25 0.26 0.26 0.27 0.30 0.32 0.32 0.32 0.34 0.31 0.28 0.27 0.30 0.31 0.30 0.33 0.37 0.45 0.52 0.57 0.64 0.61 0.56 0.58 0.70 0.49 0.40 0.47 0.63 0.81 0.79 0.71
0.40 0.49 0.42 0.31 0.27 0.28 0.27 0.26 0.24 0.27 0.29 0.29 0.30 0.28 0.30 0.31 0.33 0.33 0.35 0.36 0.35 0.33 0.32 0.30 0.29 0.31 0.35 0.40 0.46 0.50 0.54 0.62 0.69 0.74 0.61 0.65 0.43 0.43 0.52 0.60 0.74 0.83 0.84
0.60 0.61 0.57 0.44 0.41 0.33 0.28 0.28 0.31 0.34 0.36 0.33 0.30 0.31 0.33 0.33 0.36 0.39 0.39 0.47 0.47 0.49 0.51 0.48 0.41 0.39 0.44 0.49 0.50 0.55 0.61 0.61 0.67 0.71 0.87 0.69 0.52 0.58 0.66 0.66 0.72 0.84 0.92
1.04 0.92 0.79 0.53 0.45 0.44 0.38 0.34 0.43 0.45 0.43 0.45 0.46 0.43 0.58 0.76 0.76 0.85 0.70 0.79 0.76 0.79 0.79 0.80 0.75 0.72 0.74 0.65 0.69 0.81 0.78 0.70 0.88 0.97 0.88 0.63 0.66 0.87 1.00 0.84 0.80 0.83 0.88
1.57 1.37 1.13 0.83 0.64 0.58 0.51 0.55 0.66 0.66 0.77 0.81 0.96 1.01 1.27 1.49 1.43 1.04 1.09 1.30 1.35 1.36 1.30 1.33 1.46 1.32 1.16 1.01 1.31 1.54 1.00 0.86 1.00 0.96 0.88 0.95 1.12 1.39 1.52 1.26 1.05 0.92 0.89
1.72 1.55 1.43 1.21 0.98 0.78 0.82 0.84 0.93 1.08 1.37 1.25 1.17 1.30 1.69 1.55 1.27 1.15 1.29 1.58 1.86 1.84 1.80 1.89 2.04 1.69 1.77 1.97 2.09 2.11 1.49 1.22 1.33 1.24 1.05 1.23 1.49 1.81 2.00 1.79 1.44 1.22 1.08
2.28 2.04 1.82 1.66 1.44 1.38 1.28 1.18 1.09 1.15 1.29 1.30 1.42 1.32 1.66 1.81 1.68 1.63 1.81 1.91 2.11 2.30 2.69 2.55 2.67 2.52 2.43 2.25 2.29 2.30 2.03 1.89 1.79 1.86 1.85 1.75 1.83 2.04 2.31 2.28 1.99 1.68 1.45
2.72 2.51 2.36 2.22 2.12 2.09 1.94 1.74 1.38 1.44 1.42 1.44 1.65 1.65 1.76 2.05 2.14 2.22 2.22 2.18 2.03 2.36 2.78 3.01 2.71 2.99 3.00 2.58 2.24 2.11 2.10 2.06 2.24 2.45 2.33 2.48 2.39 2.34 2.56 2.60 2.41 2.19 2.03
2.89 3.01 3.09 2.97 2.85 2.83 2.63 2.43 2.15 1.94 2.03 1.97 1.98 2.11 2.27 2.50 2.67 2.72 2.58 2.49 2.26 2.27 2.57 2.77 2.74 2.99 2.88 2.71 2.10 1.97 1.94 2.08 2.25 2.32 2.36 2.81 2.76 2.50 2.50 2.65 2.68 2.53 2.37
3.06 3.51 3.76 3.80 3.71 3.67 3.55 3.21 2.83 2.64 2.65 2.79 2.86 2.86 2.79 2.92 3.18 3.07 2.87 2.51 2.37 2.42 2.57 2.53 2.55 2.60 2.46 2.38 2.13 2.18 2.13 2.05 1.96 2.03 2.18 2.40 2.34 2.18 2.17 2.29 2.56 2.71 2.85
3.37 3.92 4.21 4.36 4.59 4.47 4.41 4.07 3.57 3.30 3.20 3.16 3.21 3.20 3.10 3.18 3.08 3.03 2.74 2.35 2.43 2.50 2.48 2.50 2.34 2.39 2.41 2.45 2.43 2.25 2.32 2.19 1.79 1.77 1.84 1.82 1.94 1.77 1.94 2.09 2.22 2.44 2.90
3.69 4.35 4.72 5.19 5.49 5.38 5.10 4.59 4.11 3.97 3.76 3.56 3.51 3.42 3.25 3.04 2.89 2.98 2.68 2.56 2.52 2.51 2.36 2.15 2.44 2.58 2.60 2.60 2.35 2.21 1.98 1.77 1.54 1.37 1.33 1.23 1.43 1.62 1.82 1.87 1.97 2.08 2.58
3.75 4.50 5.12 5.67 5.87 5.62 5.07 4.63 4.45 4.26 3.94 3.68 3.39 3.14 2.84 2.70 2.54 2.71 2.48 2.43 2.54 2.60 2.40 2.40 2.65 2.66 2.40 2.45 2.16 2.00 1.79 1.46 1.31 1.17 1.02 1.01 0.99 0.98 1.25 1.66 2.02 1.73 2.08
3.97 4.70 5.31 5.71 5.68 5.46 5.08 4.69 4.39 3.91 3.61 3.33 3.04 2.81 2.55 2.29 2.20 2.48 2.27 2.53 2.45 2.32 2.16 2.16 2.27 2.30 2.03 2.26 2.44 1.97 1.49 1.23 1.10 0.94 0.94 1.01 0.95 1.02 1.28 1.68 1.94 2.06 1.92
3.78 4.29 4.74 4.72 4.39 4.25 4.19 4.11 3.85 3.85 3.71 3.55 3.29 3.05 2.64 2.46 2.31 2.15 2.28 2.14 2.10 2.18 1.99 1.90 2.08 2.08 1.83 2.14 2.24 2.20 1.67 1.42 1.14 0.78 0.86 0.91 0.98 1.17 1.23 1.37 1.71 1.95 1.90
3.22 3.56 3.62 3.49 3.31 3.34 3.38 3.36 3.44 3.65 3.65 3.57 3.41 3.13 2.83 2.67 2.55 2.41 2.27 2.07 2.00 1.86 1.90 1.92 1.97 1.98 1.88 1.89 1.96 2.13 1.73 1.41 1.19 0.83 0.77 0.85 1.06 1.31 1.31 1.41 1.45 1.64 1.70
2.44 2.61 2.62 2.69 2.71 2.72 2.74 2.72 2.65 2.69 2.85 3.06 3.28 3.30 3.24 3.02 2.77 2.49 2.29 2.09 1.90 1.75 1.89 1.63 1.72 1.97 2.02 1.77 1.77 1.74 1.64 1.72 1.67 1.30 0.92 0.80 1.02 1.19 1.27 1.21 1.30 1.52 1.70
1.75 1.88 1.94 2.23 2.55 2.64 2.66 2.75 2.67 2.40 2.37 2.41 2.56 2.70 2.70 2.69 2.54 2.24 2.13 2.09 1.91 1.74 1.72 1.68 1.90 1.89 1.85 1.76 1.79 1.77 1.85 1.95 1.79 1.66 1.34 1.18 1.19 1.10 1.11 1.15 1.27 1.42 1.63
1.37 1.53 1.74 2.05 2.43 2.63 2.67 2.64 2.61 2.51 2.47 2.37 2.34 2.36 2.25 2.23 2.19 2.05 1.98 2.00 1.86 1.74 1.71 1.68 1.78 1.84 1.90 1.94 1.93 1.87 1.90 1.86 1.87 2.04 1.78 1.59 1.52 1.26 1.19 1.25 1.40 1.54 1.66

GEFSSE_prec_meanprecacc_210.txt.gz
Total_Precipitation_Accumulation
0.31 0.33 0.50 0.42 0.36 0.38 0.38 0.38 0.39 0.40 0.38 0.38 0.40 0.38 0.37 0.36 0.39 0.41 0.44 0.50 0.55 0.64 0.74 0.83 0.89 0.85 0.83 0.77 0.67 0.61 0.56 0.59 0.65 0.70 0.74 0.75 0.82 0.97 1.17 1.20 1.24 0.81 0.80
0.15 0.21 0.40 0.32 0.27 0.28 0.30 0.32 0.34 0.36 0.37 0.36 0.36 0.36 0.41 0.42 0.40 0.40 0.47 0.51 0.53 0.61 0.72 0.78 0.73 0.67 0.59 0.54 0.50 0.49 0.53 0.65 0.75 0.84 0.88 0.76 0.88 1.05 1.13 1.10 1.23 0.77 0.70
0.11 0.12 0.22 0.27 0.23 0.27 0.29 0.30 0.32 0.32 0.32 0.33 0.34 0.37 0.43 0.42 0.38 0.38 0.41 0.46 0.53 0.60 0.61 0.60 0.52 0.42 0.38 0.38 0.40 0.47 0.57 0.72 0.95 1.15 1.31 0.85 0.62 0.98 1.06 0.99 0.81 0.57 0.59
0.08 0.09 0.11 0.20 0.20 0.20 0.24 0.28 0.31 0.28 0.28 0.30 0.33 0.33 0.37 0.40 0.40 0.40 0.42 0.48 0.53 0.54 0.47 0.45 0.40 0.32 0.29 0.30 0.37 0.47 0.59 0.72 1.10 1.49 1.61 0.79 0.39 0.59 0.72 0.61 0.54 0.51 0.50
0.08 0.09 0.12 0.16 0.16 0.15 0.18 0.24 0.26 0.25 0.26 0.29 0.30 0.31 0.34 0.36 0.40 0.42 0.46 0.49 0.48 0.44 0.39 0.40 0.37 0.31 0.27 0.29 0.36 0.47 0.55 0.74 1.08 1.32 1.11 0.87 0.75 0.59 0.52 0.49 0.53 0.52 0.50
0.11 0.10 0.12 0.16 0.14 0.14 0.16 0.19 0.23 0.26 0.28 0.28 0.26 0.30 0.32 0.37 0.39 0.38 0.40 0.41 0.40 0.35 0.35 0.34 0.30 0.29 0.28 0.31 0.38 0.46 0.61 0.84 1.00 0.74 0.66 0.76 0.71 0.58 0.51 0.57 0.58 0.52 0.49
0.12 0.13 0.15 0.17 0.15 0.16 0.17 0.19 0.21 0.22 0.26 0.26 0.25 0.27 0.30 0.36 0.35 0.34 0.34 0.35 0.33 0.29 0.30 0.32 0.32 0.28 0.31 0.35 0.43 0.51 0.69 0.92 0.90 0.61 0.65 0.87 0.71 0.48 0.52 0.64 0.76 0.66 0.48
0.17 0.20 0.23 0.25 0.23 0.20 0.19 0.19 0.20 0.23 0.24 0.26 0.27 0.27 0.29 0.32 0.34 0.33 0.33 0.35 0.32 0.29 0.29 0.30 0.32 0.31 0.34 0.39 0.48 0.56 0.61 0.66 0.63 0.61 0.61 0.72 0.51 0.42 0.49 0.64 0.81 0.80 0.72
0.40 0.50 0.43 0.32 0.27 0.28 0.27 0.26 0.25 0.28 0.30 0.31 0.31 0.29 0.31 0.33 0.34 0.34 0.36 0.37 0.36 0.34 0.33 0.31 0.29 0.32 0.36 0.41 0.47 0.52 0.57 0.65 0.71 0.77 0.64 0.67 0.44 0.45 0.53 0.61 0.74 0.84 0.85
0.63 0.64 0.60 0.48 0.42 0.34 0.29 0.29 0.31 0.36 0.38 0.35 0.32 0.33 0.34 0.34 0.37 0.40 0.40 0.48 0.48 0.50 0.52 0.49 0.42 0.39 0.45 0.50 0.51 0.57 0.64 0.64 0.69 0.73 0.88 0.71 0.53 0.59 0.67 0.67 0.73 0.85 0.93
1.06 0.96 0.83 0.55 0.47 0.45 0.39 0.36 0.44 0.47 0.47 0.51 0.50 0.46 0.60 0.78 0.78 0.87 0.72 0.81 0.78 0.82 0.81 0.81 0.76 0.74 0.75 0.66 0.70 0.83 0.80 0.72 0.92 1.00 0.91 0.65 0.67 0.89 1.01 0.85 0.81 0.84 0.90
1.59 1.39 1.14 0.84 0.66 0.60 0.54 0.61 0.68 0.69 0.80 0.85 1.02 1.05 1.30 1.53 1.46 1.07 1.12 1.34 1.38 1.39 1.33 1.35 1.48 1.33 1.17 1.02 1.32 1.56 1.02 0.89 1.03 0.99 0.93 0.99 1.15 1.41 1.54 1.28 1.06 0.93 0.91
1.73 1.56 1.45 1.22 0.99 0.79 0.86 0.88 0.97 1.11 1.41 1.29 1.22 1.35 1.72 1.59 1.31 1.20 1.34 1.62 1.90 1.87 1.82 1.91 2.06 1.71 1.79 1.99 2.11 2.13 1.52 1.26 1.37 1.28 1.09 1.27 1.52 1.83 2.02 1.80 1.46 1.23 1.09
2.29 2.04 1.83 1.68 1.46 1.39 1.30 1.21 1.13 1.20 1.35 1.35 1.52 1.38 1.71 1.85 1.73 1.69 1.89 1.96 2.16 2.34 2.73 2.58 2.70 2.56 2.45 2.27 2.32 2.32 2.06 1.93 1.82 1.92 1.89 1.79 1.86 2.07 2.33 2.30 2.00 1.69 1.46
2.73 2.52 2.37 2.22 2.13 2.10 1.95 1.76 1.40 1.47 1.46 1.49 1.71 1.73 1.82 2.08 2.19 2.28 2.28 2.22 2.07 2.40 2.83 3.06 2.76 3.03 3.02 2.61 2.26 2.13 2.13 2.09 2.28 2.50 2.36 2.51 2.42 2.36 2.59 2.62 2.43 2.21 2.05
2.90 3.01 3.10 2.97 2.85 2.84 2.64 2.45 2.17 1.96 2.06 1.99 2.01 2.15 2.32 2.54 2.71 2.76 2.61 2.52 2.29 2.30 2.60 2.82 2.79 3.04 2.91 2.75 2.13 2.00 1.97 2.11 2.29 2.36 2.39 2.83 2.78 2.53 2.53 2.69 2.72 2.56 2.40
3.06 3.51 3.76 3.80 3.72 3.68 3.56 3.23 2.85 2.67 2.67 2.81 2.88 2.89 2.83 2.95 3.20 3.09 2.88 2.54 2.41 2.46 2.62 2.57 2.59 2.65 2.51 2.44 2.18 2.22 2.18 2.09 2.01 2.08 2.22 2.43 2.36 2.20 2.21 2.34 2.61 2.78 2.93
3.38 3.93 4.22 4.37 4.61 4.48 4.43 4.10 3.60 3.34 3.23 3.20 3.25 3.25 3.16 3.22 3.10 3.06 2.77 2.37 2.46 2.53 2.52 2.54 2.39 2.44 2.47 2.52 2.50 2.31 2.38 2.26 1.84 1.85 1.90 1.85 1.97 1.80 1.97 2.13 2.28 2.51 2.99
3.70 4.36 4.73 5.22 5.53 5.41 5.12 4.62 4.14 4.00 3.80 3.59 3.55 3.47 3.32 3.10 2.94 3.02 2.72 2.60 2.56 2.55 2.40 2.19 2.50 2.64 2.65 2.65 2.40 2.27 2.06 1.86 1.62 1.45 1.42 1.29 1.49 1.69 1.88 1.93 2.06 2.17 2.69
3.76 4.51 5.13 5.70 5.91 5.65 5.11 4.67 4.49 4.30 3.97 3.72 3.43 3.19 2.93 2.81 2.62 2.76 2.53 2.50 2.62 2.66 2.44 2.45 2.70 2.72 2.44 2.49 2.20 2.06 1.86 1.54 1.43 1.32 1.15 1.12 1.10 1.09 1.38 1.81 2.17 1.88 2.22
3.99 4.73 5.34 5.75 5.72 5.51 5.12 4.73 4.42 3.95 3.65 3.38 3.09 2.88 2.65 2.37 2.26 2.54 2.34 2.60 2.51 2.36 2.19 2.19 2.30 2.33 2.07 2.30 2.51 2.03 1.54 1.29 1.20 1.07 1.07 1.16 1.09 1.18 1.46 1.89 2.14 2.23 2.04
3.81 4.36 4.78 4.76 4.42 4.29 4.26 4.15 3.87 3.88 3.74 3.60 3.34 3.10 2.69 2.50 2.35 2.19 2.32 2.19 2.15 2.22 2.03 1.93 2.12 2.12 1.89 2.21 2.31 2.26 1.72 1.49 1.24 0.86 0.98 1.09 1.16 1.37 1.46 1.57 1.89 2.12 2.01
3.25 3.59 3.64 3.51 3.34 3.38 3.43 3.39 3.47 3.68 3.69 3.62 3.46 3.16 2.85 2.69 2.58 2.43 2.31 2.12 2.05 1.91 1.93 1.95 2.02 2.04 1.95 1.95 2.02 2.18 1.79 1.45 1.25 0.92 0.91 1.08 1.34 1.54 1.51 1.58 1.60 1.79 1.86
2.49 2.64 2.64 2.71 2.74 2.75 2.77 2.76 2.68 2.71 2.89 3.10 3.32 3.34 3.27 3.04 2.79 2.52 2.32 2.13 1.94 1.79 1.93 1.66 1.75 2.01 2.07 1.81 1.83 1.80 1.69 1.77 1.72 1.37 1.02 0.94 1.20 1.38 1.44 1.35 1.42 1.60 1.81
1.78 1.90 1.96 2.25 2.57 2.66 2.69 2.78 2.69 2.43 2.41 2.47 2.61 2.75 2.74 2.72 2.56 2.26 2.16 2.11 1.94 1.77 1.75 1.71 1.94 1.94 1.90 1.81 1.86 1.84 1.92 2.02 1.87 1.74 1.44 1.32 1.37 1.30 1.26 1.26 1.38 1.51 1.74
1.39 1.56 1.76 2.06 2.45 2.66 2.69 2.66 2.63 2.54 2.50 2.41 2.39 2.42 2.30 2.29 2.23 2.09 2.01 2.04 1.89 1.76 1.73 1.71 1.83 1.89 1.96 2.01 2.00 1.94 1.98 1.95 1.95 2.12 1.87 1.70 1.65 1.42 1.36 1.38 1.51 1.64 1.79

GEFSSE_prec_meanprecacc_216.txt.gz
Total_Precipitation_Accumulation
0.37 0.41 0.61 0.50 0.43 0.43 0.45 0.46 0.50 0.51 0.48 0.48 0.51 0.48 0.46 0.45 0.47 0.50 0.56 0.66 0.74 0.83 0.93 1.04 1.09 0.99 0.93 0.83 0.73 0.66 0.62 0.65 0.71 0.77 0.84 0.86 0.92 1.08 1.30 1.30 1.32 0.89 0.89
0.19 0.28 0.49 0.38 0.31 0.32 0.35 0.39 0.45 0.46 0.47 0.45 0.44 0.43 0.48 0.50 0.48 0.50 0.62 0.72 0.74 0.84 0.96 0.99 0.89 0.78 0.68 0.60 0.55 0.54 0.59 0.72 0.81 0.92 0.98 0.85 0.98 1.15 1.23 1.18 1.29 0.84 0.78
0.15 0.15 0.26 0.31 0.26 0.30 0.32 0.34 0.39 0.40 0.39 0.39 0.41 0.43 0.49 0.49 0.46 0.50 0.59 0.66 0.76 0.86 0.82 0.77 0.62 0.50 0.45 0.42 0.45 0.52 0.62 0.77 1.01 1.21 1.37 0.91 0.70 1.06 1.12 1.04 0.86 0.62 0.65
0.10 0.10 0.12 0.23 0.23 0.22 0.27 0.31 0.34 0.33 0.34 0.37 0.39 0.39 0.42 0.45 0.47 0.50 0.57 0.63 0.71 0.69 0.59 0.57 0.49 0.38 0.33 0.34 0.41 0.50 0.61 0.75 1.13 1.51 1.62 0.80 0.42 0.65 0.77 0.66 0.57 0.55 0.54
0.09 0.10 0.13 0.18 0.17 0.17 0.20 0.26 0.29 0.28 0.30 0.33 0.34 0.36 0.39 0.41 0.49 0.55 0.61 0.63 0.60 0.53 0.48 0.49 0.43 0.36 0.30 0.32 0.39 0.51 0.59 0.77 1.10 1.34 1.12 0.88 0.76 0.63 0.55 0.52 0.57 0.56 0.53
0.11 0.11 0.14 0.17 0.16 0.15 0.17 0.21 0.24 0.27 0.30 0.30 0.29 0.35 0.38 0.46 0.48 0.50 0.52 0.52 0.50 0.44 0.41 0.38 0.35 0.33 0.31 0.33 0.41 0.50 0.65 0.88 1.01 0.75 0.67 0.78 0.72 0.62 0.54 0.60 0.60 0.54 0.50
0.12 0.14 0.16 0.18 0.16 0.16 0.18 0.19 0.22 0.24 0.28 0.29 0.28 0.31 0.35 0.42 0.42 0.42 0.41 0.41 0.39 0.34 0.34 0.37 0.37 0.32 0.34 0.37 0.45 0.55 0.72 0.95 0.91 0.62 0.66 0.88 0.72 0.51 0.55 0.65 0.77 0.66 0.49
0.18 0.20 0.24 0.26 0.24 0.21 0.19 0.19 0.21 0.24 0.26 0.29 0.31 0.30 0.32 0.36 0.39 0.38 0.37 0.39 0.36 0.33 0.33 0.35 0.37 0.35 0.37 0.42 0.50 0.58 0.64 0.68 0.64 0.61 0.62 0.74 0.53 0.44 0.50 0.65 0.82 0.81 0.73
0.41 0.50 0.44 0.33 0.28 0.29 0.28 0.27 0.25 0.29 0.31 0.33 0.33 0.32 0.35 0.37 0.39 0.38 0.40 0.40 0.39 0.37 0.36 0.34 0.33 0.36 0.40 0.45 0.50 0.55 0.60 0.67 0.72 0.78 0.65 0.68 0.46 0.47 0.55 0.62 0.75 0.85 0.86
0.63 0.64 0.60 0.48 0.43 0.35 0.30 0.31 0.33 0.37 0.39 0.37 0.34 0.35 0.37 0.37 0.40 0.43 0.43 0.51 0.51 0.53 0.55 0.52 0.45 0.43 0.48 0.55 0.55 0.61 0.67 0.66 0.70 0.74 0.90 0.72 0.55 0.62 0.70 0.70 0.76 0.86 0.93
1.07 0.97 0.83 0.55 0.47 0.45 0.40 0.37 0.46 0.48 0.49 0.54 0.53 0.49 0.63 0.79 0.79 0.88 0.74 0.84 0.83 0.86 0.85 0.85 0.80 0.78 0.79 0.69 0.75 0.88 0.83 0.74 0.92 1.01 0.92 0.66 0.69 0.91 1.04 0.88 0.84 0.86 0.92
1.59 1.40 1.16 0.85 0.67 0.61 0.55 0.62 0.69 0.70 0.82 0.87 1.03 1.06 1.31 1.54 1.47 1.08 1.14 1.38 1.43 1.43 1.36 1.40 1.53 1.37 1.20 1.03 1.34 1.59 1.03 0.89 1.04 1.00 0.94 1.00 1.18 1.44 1.57 1.31 1.08 0.95 0.93
1.74 1.58 1.47 1.24 1.01 0.82 0.87 0.91 0.98 1.13 1.43 1.31 1.24 1.37 1.74 1.60 1.33 1.21 1.36 1.65 1.93 1.90 1.85 1.94 2.09 1.74 1.80 1.99 2.11 2.14 1.54 1.28 1.38 1.30 1.11 1.29 1.56 1.88 2.08 1.85 1.49 1.26 1.12
2.30 2.06 1.85 1.70 1.48 1.42 1.33 1.23 1.16 1.23 1.38 1.38 1.55 1.43 1.75 1.87 1.74 1.71 1.92 1.99 2.18 2.36 2.75 2.59 2.72 2.58 2.46 2.28 2.32 2.34 2.09 1.97 1.84 1.95 1.92 1.82 1.91 2.13 2.41 2.36 2.06 1.74 1.49
2.74 2.53 2.38 2.25 2.16 2.13 1.97 1.79 1.43 1.49 1.49 1.53 1.75 1.78 1.88 2.12 2.21 2.31 2.30 2.25 2.09 2.42 2.84 3.07 2.78 3.06 3.05 2.62 2.26 2.15 2.15 2.11 2.30 2.53 2.38 2.54 2.46 2.41 2.65 2.70 2.51 2.28 2.11
2.91 3.03 3.12 2.99 2.88 2.86 2.66 2.47 2.18 1.98 2.08 2.02 2.05 2.20 2.37 2.58 2.75 2.81 2.65 2.55 2.31 2.32 2.62 2.83 2.81 3.06 2.94 2.77 2.15 2.03 2.00 2.13 2.32 2.40 2.42 2.85 2.82 2.57 2.59 2.76 2.81 2.65 2.47
3.07 3.52 3.78 3.83 3.74 3.70 3.58 3.24 2.86 2.68 2.70 2.85 2.94 2.97 2.91 3.01 3.26 3.14 2.94 2.58 2.44 2.49 2.66 2.61 2.62 2.68 2.55 2.48 2.23 2.27 2.21 2.12 2.04 2.12 2.26 2.47 2.40 2.25 2.27 2.41 2.71 2.89 3.05
3.39 3.94 4.24 4.40 4.62 4.50 4.44 4.11 3.61 3.37 3.27 3.23 3.29 3.32 3.24 3.29 3.17 3.12 2.83 2.43 2.50 2.57 2.57 2.59 2.45 2.50 2.52 2.57 2.55 2.36 2.41 2.30 1.87 1.89 1.97 1.91 2.01 1.83 2.03 2.21 2.37 2.62 3.14
3.71 4.37 4.76 5.25 5.55 5.43 5.14 4.64 4.17 4.02 3.82 3.62 3.59 3.51 3.39 3.17 3.00 3.09 2.78 2.66 2.60 2.59 2.42 2.21 2.54 2.69 2.70 2.69 2.44 2.32 2.11 1.91 1.68 1.51 1.48 1.36 1.54 1.73 1.94 2.00 2.17 2.30 2.82
3.77 4.52 5.15 5.72 5.93 5.68 5.14 4.70 4.51 4.31 4.00 3.76 3.48 3.25 3.00 2.89 2.69 2.83 2.59 2.56 2.68 2.71 2.48 2.48 2.74 2.75 2.48 2.53 2.26 2.11 1.91 1.58 1.47 1.37 1.21 1.18 1.16 1.15 1.45 1.87 2.27 2.01 2.37
4.00 4.74 5.36 5.77 5.74 5.54 5.16 4.77 4.46 3.98 3.68 3.43 3.14 2.92 2.69 2.43 2.32 2.61 2.40 2.66 2.56 2.42 2.25 2.23 2.32 2.35 2.09 2.34 2.54 2.07 1.57 1.32 1.23 1.10 1.11 1.20 1.14 1.23 1.52 1.95 2.22 2.33 2.16
3.83 4.39 4.80 4.78 4.45 4.32 4.30 4.18 3.90 3.92 3.77 3.64 3.37 3.15 2.75 2.57 2.42 2.26 2.42 2.26 2.20 2.26 2.08 1.98 2.16 2.16 1.92 2.26 2.35 2.29 1.74 1.51 1.27 0.90 1.02 1.13 1.22 1.45 1.55 1.68 2.02 2.26 2.15
3.30 3.64 3.67 3.55 3.38 3.41 3.46 3.42 3.50 3.70 3.71 3.65 3.49 3.20 2.91 2.76 2.64 2.50 2.39 2.18 2.09 1.93 1.96 1.98 2.05 2.08 1.98 1.99 2.06 2.22 1.81 1.47 1.27 0.97 0.97 1.15 1.43 1.67 1.65 1.71 1.70 1.87 1.94
2.53 2.67 2.67 2.74 2.76 2.77 2.81 2.80 2.70 2.74 2.92 3.13 3.33 3.36 3.30 3.08 2.84 2.58 2.40 2.16 1.96 1.82 1.95 1.68 1.78 2.04 2.10 1.85 1.86 1.83 1.72 1.79 1.75 1.41 1.07 1.00 1.27 1.46 1.53 1.43 1.49 1.67 1.86
1.82 1.93 1.99 2.28 2.59 2.69 2.73 2.82 2.72 2.45 2.44 2.49 2.63 2.76 2.76 2.76 2.61 2.32 2.21 2.13 1.95 1.79 1.78 1.74 1.96 1.97 1.93 1.84 1.89 1.87 1.94 2.05 1.89 1.76 1.46 1.37 1.45 1.40 1.37 1.35 1.44 1.55 1.79
1.43 1.59 1.79 2.09 2.47 2.68 2.72 2.68 2.65 2.55 2.51 2.42 2.41 2.45 2.32 2.31 2.25 2.11 2.03 2.05 1.90 1.77 1.75 1.75 1.86 1.93 2.00 2.05 2.02 1.97 2.01 1.98 1.98 2.15 1.90 1.76 1.71 1.49 1.46 1.48 1.56 1.69 1.85

GEFSSE_prec_meanprecacc_222.txt.gz
Total_Precipitation_Accumulation
0.43 0.51 0.77 0.68 0.58 0.57 0.59 0.59 0.60 0.63 0.58 0.58 0.62 0.60 0.59 0.60 0.61 0.65 0.71 0.79 0.87 0.95 1.04 1.19 1.26 1.12 1.04 0.93 0.82 0.76 0.72 0.76 0.80 0.86 0.94 0.97 1.03 1.21 1.42 1.40 1.40 0.97 0.97
0.24 0.35 0.61 0.51 0.43 0.45 0.45 0.51 0.59 0.58 0.57 0.55 0.53 0.53 0.64 0.67 0.64 0.66 0.78 0.86 0.88 0.96 1.11 1.19 1.06 0.89 0.78 0.69 0.63 0.62 0.67 0.82 0.93 1.02 1.09 0.96 1.09 1.28 1.34 1.26 1.37 0.92 0.85
0.20 0.21 0.33 0.39 0.35 0.41 0.41 0.46 0.54 0.52 0.51 0.48 0.49 0.52 0.65 0.71 0.70 0.69 0.75 0.81 0.93 1.06 1.05 0.99 0.77 0.60 0.53 0.50 0.52 0.58 0.68 0.85 1.10 1.29 1.47 1.01 0.82 1.19 1.21 1.11 0.92 0.68 0.72
0.14 0.15 0.16 0.29 0.31 0.30 0.34 0.40 0.45 0.44 0.43 0.44 0.46 0.47 0.52 0.59 0.61 0.67 0.77 0.85 0.98 0.94 0.81 0.74 0.60 0.46 0.40 0.40 0.45 0.55 0.65 0.81 1.19 1.56 1.68 0.87 0.50 0.73 0.84 0.71 0.62 0.61 0.62
0.12 0.13 0.17 0.23 0.24 0.24 0.27 0.34 0.36 0.35 0.36 0.39 0.42 0.46 0.48 0.51 0.62 0.76 0.83 0.88 0.83 0.71 0.63 0.60 0.52 0.43 0.35 0.35 0.42 0.55 0.63 0.81 1.13 1.36 1.15 0.92 0.82 0.69 0.61 0.56 0.60 0.61 0.60
0.13 0.13 0.17 0.22 0.20 0.21 0.23 0.27 0.31 0.33 0.35 0.36 0.37 0.44 0.50 0.62 0.71 0.75 0.75 0.72 0.67 0.59 0.52 0.45 0.40 0.38 0.34 0.35 0.44 0.54 0.69 0.90 1.03 0.76 0.69 0.81 0.76 0.67 0.58 0.64 0.63 0.57 0.53
0.14 0.16 0.18 0.22 0.20 0.20 0.22 0.25 0.29 0.31 0.35 0.37 0.37 0.42 0.53 0.67 0.70 0.65 0.57 0.55 0.52 0.43 0.41 0.42 0.41 0.34 0.36 0.39 0.48 0.58 0.76 0.97 0.92 0.63 0.68 0.92 0.75 0.54 0.58 0.69 0.79 0.69 0.51
0.20 0.23 0.26 0.28 0.26 0.24 0.24 0.25 0.27 0.29 0.32 0.36 0.38 0.40 0.46 0.53 0.55 0.51 0.47 0.48 0.45 0.40 0.38 0.40 0.40 0.37 0.39 0.44 0.53 0.61 0.68 0.71 0.65 0.62 0.65 0.78 0.56 0.46 0.52 0.67 0.84 0.83 0.75
0.42 0.52 0.46 0.36 0.31 0.32 0.33 0.33 0.32 0.35 0.38 0.39 0.40 0.39 0.44 0.47 0.48 0.47 0.47 0.46 0.45 0.43 0.42 0.38 0.36 0.38 0.42 0.47 0.52 0.58 0.61 0.68 0.73 0.80 0.67 0.72 0.49 0.49 0.58 0.64 0.76 0.85 0.86
0.64 0.66 0.62 0.50 0.45 0.36 0.32 0.35 0.39 0.43 0.46 0.44 0.41 0.43 0.45 0.44 0.46 0.49 0.49 0.56 0.56 0.58 0.61 0.57 0.49 0.45 0.50 0.57 0.58 0.64 0.69 0.68 0.71 0.75 0.91 0.74 0.56 0.64 0.72 0.73 0.78 0.87 0.94
1.07 0.98 0.84 0.56 0.48 0.46 0.40 0.39 0.50 0.52 0.54 0.59 0.58 0.55 0.68 0.84 0.83 0.93 0.78 0.89 0.87 0.90 0.90 0.90 0.84 0.81 0.81 0.71 0.78 0.91 0.85 0.74 0.93 1.02 0.94 0.67 0.71 0.93 1.06 0.90 0.87 0.88 0.94
1.60 1.40 1.16 0.85 0.68 0.62 0.55 0.63 0.72 0.73 0.85 0.91 1.08 1.10 1.35 1.59 1.52 1.12 1.18 1.43 1.48 1.47 1.40 1.44 1.57 1.40 1.22 1.05 1.36 1.61 1.04 0.90 1.04 1.01 0.95 1.01 1.19 1.47 1.61 1.33 1.11 0.98 0.96
1.75 1.58 1.47 1.25 1.02 0.83 0.89 0.92 1.01 1.16 1.46 1.34 1.27 1.41 1.78 1.63 1.36 1.25 1.40 1.70 1.99 1.94 1.89 1.97 2.12 1.77 1.84 2.03 2.15 2.16 1.55 1.29 1.38 1.31 1.12 1.30 1.58 1.93 2.15 1.92 1.56 1.31 1.16
2.31 2.07 1.86 1.71 1.50 1.43 1.35 1.27 1.21 1.27 1.42 1.43 1.60 1.48 1.79 1.92 1.79 1.76 1.98 2.04 2.24 2.43 2.81 2.64 2.76 2.62 2.50 2.32 2.36 2.37 2.11 2.00 1.87 1.98 1.95 1.84 1.94 2.18 2.49 2.47 2.15 1.81 1.55
2.75 2.55 2.40 2.26 2.17 2.15 2.01 1.83 1.46 1.53 1.53 1.58 1.83 1.85 1.94 2.19 2.28 2.37 2.36 2.29 2.13 2.46 2.89 3.13 2.83 3.11 3.10 2.67 2.31 2.18 2.18 2.15 2.35 2.58 2.42 2.56 2.50 2.46 2.71 2.78 2.60 2.35 2.18
2.92 3.05 3.14 3.01 2.90 2.89 2.70 2.50 2.22 2.01 2.13 2.06 2.11 2.26 2.43 2.66 2.84 2.90 2.72 2.62 2.37 2.38 2.67 2.88 2.86 3.11 2.98 2.82 2.19 2.07 2.05 2.20 2.38 2.45 2.45 2.89 2.85 2.61 2.63 2.83 2.91 2.74 2.55
3.09 3.54 3.81 3.85 3.76 3.73 3.61 3.27 2.89 2.71 2.73 2.89 3.00 3.02 2.96 3.08 3.34 3.23 3.01 2.66 2.50 2.55 2.71 2.66 2.67 2.74 2.59 2.52 2.27 2.32 2.27 2.18 2.11 2.17 2.31 2.53 2.45 2.29 2.32 2.47 2.78 2.99 3.15
3.40 3.96 4.26 4.41 4.64 4.52 4.47 4.15 3.64 3.40 3.29 3.27 3.36 3.38 3.29 3.34 3.22 3.19 2.89 2.50 2.56 2.62 2.62 2.66 2.51 2.57 2.59 2.61 2.59 2.40 2.45 2.35 1.91 1.93 2.02 1.97 2.07 1.90 2.08 2.25 2.44 2.70 3.25
3.72 4.38 4.78 5.28 5.57 5.45 5.17 4.69 4.20 4.06 3.86 3.67 3.65 3.58 3.45 3.23 3.06 3.17 2.87 2.74 2.67 2.65 2.49 2.26 2.59 2.75 2.77 2.77 2.50 2.37 2.16 1.96 1.72 1.56 1.53 1.40 1.58 1.76 1.98 2.04 2.22 2.36 2.91
3.78 4.53 5.17 5.74 5.95 5.71 5.17 4.74 4.56 4.36 4.04 3.80 3.52 3.30 3.07 2.94 2.73 2.91 2.66 2.62 2.74 2.78 2.56 2.55 2.80 2.82 2.54 2.61 2.31 2.16 1.97 1.63 1.51 1.41 1.25 1.20 1.19 1.17 1.49 1.93 2.34 2.09 2.46
4.01 4.75 5.37 5.79 5.77 5.57 5.19 4.80 4.52 4.04 3.73 3.47 3.18 2.95 2.73 2.48 2.38 2.70 2.47 2.73 2.62 2.49 2.33 2.30 2.39 2.41 2.16 2.40 2.61 2.13 1.63 1.38 1.29 1.16 1.15 1.23 1.17 1.26 1.56 1.99 2.27 2.39 2.23
3.84 4.40 4.81 4.80 4.47 4.34 4.32 4.21 3.95 3.96 3.81 3.67 3.41 3.18 2.79 2.61 2.47 2.33 2.50 2.33 2.27 2.33 2.16 2.05 2.24 2.23 1.99 2.34 2.44 2.38 1.82 1.58 1.33 0.95 1.07 1.18 1.27 1.51 1.60 1.72 2.07 2.35 2.25
3.31 3.66 3.68 3.56 3.39 3.43 3.48 3.44 3.52 3.73 3.73 3.68 3.52 3.24 2.95 2.80 2.68 2.54 2.44 2.24 2.16 1.99 2.04 2.08 2.15 2.18 2.09 2.10 2.15 2.33 1.93 1.57 1.34 1.02 1.02 1.20 1.48 1.72 1.70 1.77 1.78 1.96 2.03
2.55 2.69 2.68 2.77 2.78 2.80 2.83 2.82 2.74 2.76 2.94 3.15 3.36 3.40 3.34 3.11 2.86 2.59 2.42 2.19 2.00 1.86 2.02 1.75 1.85 2.14 2.21 1.95 1.95 1.90 1.81 1.89 1.84 1.48 1.13 1.05 1.31 1.50 1.58 1.50 1.58 1.75 1.94
1.82 1.94 2.01 2.30 2.61 2.71 2.76 2.85 2.75 2.47 2.45 2.50 2.64 2.78 2.79 2.78 2.62 2.34 2.22 2.14 1.98 1.83 1.81 1.78 2.02 2.04 2.00 1.93 1.96 1.92 2.01 2.13 1.97 1.85 1.53 1.42 1.50 1.45 1.44 1.43 1.50 1.62 1.86
1.43 1.59 1.81 2.11 2.48 2.69 2.74 2.70 2.66 2.56 2.51 2.43 2.44 2.48 2.36 2.34 2.28 2.13 2.04 2.07 1.93 1.80 1.78 1.78 1.91 1.98 2.05 2.12 2.10 2.04 2.09 2.06 2.07 2.26 1.99 1.81 1.77 1.54 1.51 1.53 1.60 1.73 1.89

GEFSSE_prec_meanprecacc_228.txt.gz
Total_Precipitation_Accumulation
0.55 0.64 0.98 0.90 0.75 0.73 0.75 0.74 0.76 0.84 0.76 0.71 0.74 0.73 0.73 0.72 0.71 0.75 0.82 0.91 0.99 1.07 1.16 1.32 1.39 1.27 1.19 1.08 0.92 0.83 0.79 0.82 0.87 0.93 1.01 1.04 1.12 1.32 1.53 1.50 1.48 1.01 1.01
0.31 0.44 0.74 0.67 0.59 0.58 0.57 0.63 0.71 0.71 0.72 0.70 0.70 0.75 0.88 0.84 0.75 0.77 0.89 0.97 0.98 1.07 1.23 1.34 1.21 1.03 0.91 0.81 0.73 0.71 0.77 0.91 1.02 1.10 1.18 1.05 1.21 1.42 1.48 1.38 1.46 0.96 0.90
0.23 0.26 0.39 0.47 0.46 0.53 0.52 0.57 0.66 0.63 0.62 0.61 0.67 0.72 0.89 0.90 0.86 0.84 0.88 0.93 1.06 1.20 1.19 1.16 0.94 0.75 0.65 0.62 0.61 0.66 0.77 0.95 1.20 1.39 1.59 1.11 0.93 1.32 1.31 1.18 0.99 0.73 0.77
0.15 0.17 0.18 0.33 0.40 0.42 0.45 0.52 0.56 0.53 0.52 0.53 0.63 0.68 0.74 0.80 0.80 0.82 0.90 0.99 1.13 1.09 0.98 0.97 0.82 0.63 0.54 0.52 0.53 0.61 0.72 0.88 1.27 1.69 1.83 1.05 0.70 0.88 0.93 0.78 0.68 0.67 0.68
0.13 0.16 0.19 0.27 0.32 0.36 0.38 0.45 0.46 0.44 0.44 0.48 0.56 0.69 0.73 0.75 0.83 0.90 0.97 1.05 1.01 0.88 0.85 0.87 0.71 0.57 0.47 0.42 0.48 0.60 0.68 0.87 1.20 1.46 1.22 1.01 0.94 0.79 0.67 0.61 0.65 0.66 0.66
0.14 0.16 0.21 0.29 0.28 0.31 0.34 0.37 0.40 0.41 0.43 0.44 0.47 0.61 0.71 0.83 0.90 0.92 0.91 0.90 0.83 0.74 0.72 0.63 0.52 0.46 0.39 0.38 0.47 0.58 0.73 0.96 1.10 0.80 0.73 0.86 0.81 0.72 0.62 0.68 0.68 0.62 0.59
0.14 0.18 0.22 0.27 0.26 0.26 0.31 0.35 0.39 0.40 0.43 0.45 0.45 0.53 0.67 0.81 0.84 0.80 0.71 0.68 0.64 0.56 0.52 0.49 0.47 0.38 0.38 0.42 0.51 0.61 0.79 1.01 0.95 0.65 0.72 0.96 0.78 0.56 0.61 0.72 0.83 0.73 0.55
0.22 0.25 0.29 0.32 0.29 0.29 0.31 0.33 0.35 0.39 0.42 0.46 0.49 0.52 0.57 0.63 0.66 0.62 0.58 0.57 0.53 0.47 0.44 0.44 0.43 0.39 0.42 0.47 0.55 0.64 0.71 0.73 0.66 0.63 0.67 0.80 0.58 0.47 0.54 0.69 0.86 0.85 0.77
0.44 0.55 0.52 0.38 0.33 0.37 0.44 0.46 0.45 0.49 0.53 0.54 0.55 0.52 0.53 0.55 0.56 0.55 0.55 0.53 0.51 0.49 0.47 0.42 0.39 0.40 0.43 0.49 0.54 0.59 0.63 0.69 0.74 0.81 0.68 0.74 0.51 0.50 0.59 0.65 0.77 0.87 0.88
0.66 0.68 0.67 0.54 0.48 0.40 0.41 0.50 0.55 0.60 0.62 0.58 0.54 0.53 0.53 0.51 0.53 0.56 0.53 0.62 0.60 0.63 0.66 0.63 0.53 0.46 0.50 0.58 0.59 0.66 0.71 0.68 0.71 0.76 0.93 0.76 0.58 0.65 0.73 0.73 0.79 0.88 0.95
1.09 0.99 0.86 0.58 0.52 0.49 0.43 0.44 0.58 0.62 0.63 0.70 0.69 0.64 0.79 0.95 0.92 1.01 0.84 1.00 0.93 0.94 0.93 0.93 0.85 0.81 0.81 0.72 0.80 0.93 0.86 0.75 0.94 1.03 0.96 0.69 0.71 0.95 1.07 0.92 0.88 0.90 0.95
1.62 1.41 1.17 0.87 0.69 0.63 0.57 0.66 0.78 0.80 0.92 1.00 1.17 1.17 1.44 1.71 1.62 1.20 1.27 1.50 1.53 1.50 1.42 1.47 1.60 1.42 1.24 1.07 1.38 1.63 1.05 0.90 1.05 1.03 0.98 1.03 1.21 1.48 1.62 1.36 1.14 1.00 0.97
1.77 1.61 1.49 1.26 1.04 0.85 0.91 0.96 1.07 1.21 1.52 1.40 1.33 1.47 1.86 1.71 1.44 1.30 1.48 1.78 2.05 1.98 1.93 2.03 2.17 1.81 1.87 2.07 2.18 2.19 1.56 1.30 1.40 1.33 1.17 1.35 1.61 1.95 2.18 1.95 1.59 1.35 1.19
2.31 2.08 1.87 1.71 1.50 1.45 1.37 1.29 1.24 1.30 1.45 1.47 1.65 1.53 1.87 2.00 1.86 1.84 2.08 2.12 2.31 2.51 2.91 2.72 2.82 2.67 2.55 2.38 2.39 2.39 2.13 2.01 1.90 2.01 2.00 1.88 1.96 2.19 2.51 2.50 2.19 1.85 1.58
2.76 2.56 2.41 2.27 2.18 2.16 2.04 1.87 1.47 1.55 1.56 1.63 1.88 1.92 2.03 2.29 2.38 2.47 2.46 2.39 2.19 2.53 2.97 3.20 2.90 3.17 3.16 2.73 2.36 2.22 2.22 2.18 2.37 2.61 2.46 2.59 2.52 2.47 2.74 2.82 2.64 2.41 2.22
2.93 3.06 3.16 3.02 2.91 2.91 2.72 2.54 2.26 2.03 2.16 2.11 2.18 2.35 2.53 2.77 2.95 3.00 2.83 2.73 2.43 2.43 2.72 2.94 2.93 3.22 3.07 2.89 2.27 2.15 2.12 2.25 2.42 2.49 2.50 2.95 2.89 2.64 2.67 2.88 2.97 2.82 2.63
3.09 3.55 3.83 3.86 3.77 3.74 3.62 3.29 2.92 2.73 2.75 2.92 3.06 3.08 3.04 3.18 3.45 3.33 3.12 2.75 2.57 2.61 2.75 2.69 2.72 2.82 2.69 2.62 2.37 2.41 2.34 2.24 2.16 2.24 2.39 2.61 2.53 2.35 2.37 2.53 2.84 3.06 3.23
3.40 3.97 4.28 4.42 4.65 4.53 4.50 4.18 3.66 3.42 3.32 3.31 3.41 3.44 3.34 3.39 3.29 3.29 2.99 2.58 2.63 2.68 2.68 2.72 2.57 2.65 2.67 2.71 2.66 2.45 2.49 2.40 1.97 2.02 2.11 2.06 2.17 2.00 2.17 2.32 2.50 2.76 3.32
3.72 4.39 4.79 5.29 5.58 5.47 5.19 4.71 4.24 4.11 3.91 3.72 3.70 3.65 3.51 3.27 3.10 3.24 2.94 2.81 2.75 2.73 2.56 2.31 2.67 2.86 2.89 2.87 2.54 2.42 2.20 2.01 1.79 1.62 1.62 1.49 1.68 1.88 2.09 2.15 2.31 2.43 2.98
3.78 4.53 5.18 5.75 5.96 5.73 5.20 4.79 4.62 4.41 4.07 3.84 3.58 3.36 3.13 3.01 2.81 3.01 2.74 2.68 2.80 2.87 2.66 2.63 2.90 2.97 2.68 2.72 2.37 2.24 2.04 1.68 1.58 1.49 1.36 1.32 1.30 1.28 1.62 2.08 2.47 2.20 2.53
4.03 4.76 5.38 5.80 5.78 5.60 5.26 4.89 4.61 4.10 3.77 3.50 3.22 2.98 2.77 2.52 2.44 2.79 2.56 2.81 2.69 2.60 2.43 2.38 2.48 2.53 2.28 2.51 2.73 2.24 1.72 1.45 1.37 1.28 1.27 1.33 1.25 1.35 1.66 2.09 2.37 2.51 2.33
3.85 4.40 4.82 4.82 4.49 4.37 4.39 4.29 4.04 4.03 3.85 3.70 3.43 3.20 2.81 2.63 2.51 2.39 2.58 2.40 2.36 2.44 2.26 2.15 2.34 2.34 2.11 2.45 2.56 2.51 1.94 1.69 1.42 1.02 1.13 1.26 1.33 1.58 1.66 1.79 2.15 2.44 2.36
3.33 3.67 3.70 3.59 3.42 3.47 3.53 3.51 3.60 3.80 3.79 3.72 3.55 3.27 2.98 2.82 2.71 2.59 2.49 2.29 2.22 2.06 2.14 2.18 2.24 2.27 2.19 2.19 2.25 2.44 2.07 1.71 1.44 1.09 1.07 1.27 1.53 1.78 1.77 1.83 1.85 2.05 2.15
2.56 2.70 2.69 2.78 2.81 2.82 2.87 2.90 2.82 2.84 3.01 3.20 3.40 3.44 3.37 3.12 2.87 2.61 2.44 2.22 2.05 1.91 2.09 1.83 1.94 2.23 2.32 2.05 2.04 2.00 1.92 2.00 1.93 1.56 1.20 1.12 1.37 1.56 1.63 1.55 1.64 1.83 2.05
1.82 1.94 2.01 2.31 2.63 2.73 2.80 2.91 2.81 2.53 2.51 2.54 2.67 2.81 2.82 2.81 2.64 2.34 2.24 2.17 2.01 1.87 1.86 1.83 2.09 2.11 2.09 2.02 2.07 2.03 2.13 2.26 2.08 1.93 1.60 1.50 1.59 1.53 1.50 1.49 1.56 1.70 1.93
1.43 1.60 1.82 2.12 2.50 2.72 2.79 2.74 2.70 2.59 2.55 2.46 2.48 2.52 2.39 2.37 2.30 2.14 2.06 2.11 1.96 1.83 1.81 1.82 1.96 2.02 2.12 2.20 2.19 2.14 2.19 2.18 2.21 2.40 2.09 1.89 1.84 1.62 1.57 1.60 1.68 1.80 1.94